sat.trackr.live / text

‹ back to catalog

UNKNOWN

NORAD 84006

UNKNOWN UNKNOWN UNKNOWN

§ Identity

Operator
Country
Launch date
Launch site
Launch vehicle
Mass (kg)
RCS (m²)

External: N2YO · Heavens-Above

§ Orbital elements

Epoch: 2026-05-15T03:36:53.057376Z

Period
665.96 min
Inclination
22.4641°
Eccentricity
0.6168121
Mean motion
2.16230043 rev/d
Perigee alt
3,301.7 km
Apogee alt
34,464.8 km
Semi-major
25,261.4 km
B*
0.0000e+0
RAAN
146.0485°
Arg perigee
114.5640°
Mean anomaly
319.8352°
Rev number
8,754

§ Raw data

UNKNOWN1 84006U          26135.15061409  .00000003  00000+0  00000+0 0  99922 84006  22.4641 146.0485 6168121 114.5640 319.8352  2.16230043 87549

JSON: /api/v1/satellites/84006 · /tle

For live sub-satellite position, see the globe view (requires WebGL).

§ Visibility from observer

Set your observer location to see the next 7 days of passes ≥ 10°. The values pass through the URL so the page stays shareable.

No JS? Fill the form by hand. The geolocation button needs JavaScript.